EN

Hourly Weather Laguna de Duero

Today, 25 July, Sunday

Time Temperature Precipitation Wind Pressure Humidity
00:00 +17°C° 0 mm 2 mps 698 mmHg 63%
01:00 +16°C° 0 mm 2 mps 698 mmHg 67%
02:00 +15°C° 0 mm 2 mps 698 mmHg 71%
03:00 +15°C° 0 mm 2 mps 698 mmHg 75%
04:00 +15°C° 0 mm 2 mps 698 mmHg 75%
05:00 +15°C° 0 mm 2 mps 698 mmHg 74%
06:00 +15°C° 0 mm 2 mps 698 mmHg 74%
07:00 +17°C° 0 mm 2 mps 699 mmHg 66%
08:00 +19°C° 0 mm 2 mps 699 mmHg 58%
09:00 +21°C° 0 mm 2 mps 699 mmHg 51%
10:00 +24°C° 0 mm 2 mps 699 mmHg 45%
11:00 +26°C° 0 mm 3 mps 699 mmHg 39%
12:00 +27°C° 0 mm 3 mps 699 mmHg 33%
13:00 +28°C° 0 mm 3 mps 699 mmHg 30%
14:00 +29°C° 0 mm 3 mps 698 mmHg 27%
15:00 +30°C° 0 mm 4 mps 698 mmHg 25%
16:00 +29°C° 0 mm 4 mps 698 mmHg 25%
17:00 +29°C° 0 mm 4 mps 698 mmHg 26%
18:00 +28°C° 0 mm 4 mps 698 mmHg 27%
19:00 +26°C° 0 mm 4 mps 698 mmHg 36%
20:00 +23°C° 0 mm 4 mps 698 mmHg 44%
21:00 +21°C° 0 mm 4 mps 698 mmHg 53%
22:00 +20°C° 0 mm 4 mps 698 mmHg 61%
23:00 +18°C° 0 mm 4 mps 698 mmHg 69%

Tomorrow, 26 July, Monday

Time Temperature Precipitation Wind Pressure Humidity
00:00 +17°C° 0 mm 4 mps 698 mmHg 77%
01:00 +15°C° 0 mm 4 mps 698 mmHg 78%
02:00 +15°C° 0 mm 4 mps 698 mmHg 78%
03:00 +14°C° 0 mm 3 mps 698 mmHg 78%
04:00 +14°C° 0 mm 3 mps 699 mmHg 78%
05:00 +14°C° 0 mm 3 mps 699 mmHg 77%
06:00 +14°C° 0 mm 3 mps 699 mmHg 76%
07:00 +18°C° 0 mm 3 mps 700 mmHg 67%
08:00 +20°C° 0 mm 3 mps 700 mmHg 57%
09:00 +22°C° 0 mm 4 mps 701 mmHg 47%
10:00 +25°C° 0 mm 4 mps 701 mmHg 42%
11:00 +27°C° 0 mm 3 mps 701 mmHg 36%
12:00 +29°C° 0 mm 3 mps 701 mmHg 31%
13:00 +30°C° 0 mm 3 mps 700 mmHg 29%
14:00 +30°C° 0 mm 3 mps 700 mmHg 26%
15:00 +31°C° 0 mm 3 mps 700 mmHg 24%
16:00 +32°C° 0 mm 4 mps 700 mmHg 24%
17:00 +32°C° 0 mm 4 mps 700 mmHg 24%
18:00 +30°C° 0 mm 4 mps 700 mmHg 24%
19:00 +28°C° 0 mm 3 mps 700 mmHg 28%
20:00 +26°C° 0 mm 3 mps 700 mmHg 33%
21:00 +24°C° 0 mm 2 mps 700 mmHg 38%
22:00 +21°C° 0 mm 2 mps 700 mmHg 45%
23:00 +20°C° 0 mm 2 mps 700 mmHg 53%

Day after tomorrow, 27 July, Tuesday

Time Temperature Precipitation Wind Pressure Humidity
00:00 +19°C° 0 mm 2 mps 700 mmHg 60%
01:00 +18°C° 0 mm 2 mps 699 mmHg 62%
02:00 +18°C° 0 mm 2 mps 699 mmHg 63%
03:00 +18°C° 0 mm 1 mps 699 mmHg 64%
04:00 +18°C° 0 mm 1 mps 699 mmHg 65%
05:00 +18°C° 0 mm 1 mps 699 mmHg 65%
06:00 +18°C° 0 mm 1 mps 699 mmHg 65%
07:00 +20°C° 0 mm 2 mps 700 mmHg 58%
08:00 +23°C° 0 mm 2 mps 700 mmHg 50%
09:00 +25°C° 0 mm 2 mps 700 mmHg 43%
10:00 +27°C° 0 mm 3 mps 700 mmHg 38%
11:00 +29°C° 0 mm 3 mps 700 mmHg 34%
12:00 +30°C° 0 mm 3 mps 700 mmHg 29%
13:00 +31°C° 0 mm 3 mps 700 mmHg 27%
14:00 +33°C° 0 mm 4 mps 700 mmHg 25%
15:00 +33°C° 0 mm 4 mps 699 mmHg 23%
16:00 +33°C° 0 mm 4 mps 699 mmHg 23%
17:00 +33°C° 0 mm 3 mps 699 mmHg 24%
18:00 +31°C° 0 mm 3 mps 699 mmHg 25%
19:00 +28°C° 0 mm 4 mps 699 mmHg 36%
20:00 +24°C° 0 mm 6 mps 699 mmHg 46%
21:00 +21°C° 0 mm 8 mps 699 mmHg 57%
22:00 +20°C° 0 mm 7 mps 699 mmHg 62%
23:00 +19°C° 0 mm 6 mps 699 mmHg 66%

28 July, Wednesday

Time Temperature Precipitation Wind Pressure Humidity
00:00 +17°C° 0 mm 5 mps 699 mmHg 71%
01:00 +16°C° 0 mm 6 mps 699 mmHg 72%
02:00 +16°C° 0 mm 6 mps 699 mmHg 73%
03:00 +15°C° 0 mm 6 mps 699 mmHg 75%
04:00 +15°C° 0 mm 5 mps 699 mmHg 76%
05:00 +15°C° 0 mm 4 mps 699 mmHg 77%
06:00 +16°C° 0 mm 3 mps 699 mmHg 78%
07:00 +18°C° 0 mm 4 mps 699 mmHg 69%
08:00 +21°C° 0 mm 4 mps 700 mmHg 59%
09:00 +23°C° 0 mm 4 mps 700 mmHg 50%
10:00 +26°C° 0 mm 3 mps 700 mmHg 43%
11:00 +29°C° 0 mm 3 mps 700 mmHg 37%
12:00 +31°C° 0 mm 2 mps 700 mmHg 30%
13:00 +33°C° 0 mm 3 mps 700 mmHg 27%
14:00 +34°C° 0 mm 3 mps 699 mmHg 25%
15:00 +35°C° 0 mm 4 mps 699 mmHg 22%
16:00 +35°C° 0 mm 4 mps 699 mmHg 22%
17:00 +34°C° 0 mm 4 mps 699 mmHg 23%
18:00 +34°C° 0 mm 4 mps 699 mmHg 24%
19:00 +30°C° 0 mm 4 mps 699 mmHg 29%
20:00 +28°C° 0 mm 3 mps 699 mmHg 35%
21:00 +25°C° 0 mm 3 mps 699 mmHg 40%
22:00 +24°C° 0 mm 3 mps 699 mmHg 50%
23:00 +21°C° 0 mm 3 mps 699 mmHg 59%

29 July, Thursday

Time Temperature Precipitation Wind Pressure Humidity
00:00 +19°C° 0 mm 2 mps 699 mmHg 69%
01:00 +19°C° 0 mm 2 mps 699 mmHg 72%
02:00 +18°C° 0 mm 2 mps 699 mmHg 75%
03:00 +18°C° 0 mm 2 mps 698 mmHg 78%
04:00 +19°C° 0 mm 1 mps 699 mmHg 78%
05:00 +19°C° 0 mm 1 mps 699 mmHg 78%
06:00 +19°C° 0 mm 1 mps 699 mmHg 78%
07:00 +21°C° 0 mm 1 mps 699 mmHg 67%
08:00 +24°C° 0 mm 1 mps 700 mmHg 57%
09:00 +26°C° 0 mm 2 mps 700 mmHg 47%
10:00 +28°C° 0 mm 2 mps 700 mmHg 39%
11:00 +30°C° 0 mm 3 mps 700 mmHg 32%
12:00 +34°C° 0 mm 3 mps 700 mmHg 24%
13:00 +34°C° 0 mm 4 mps 700 mmHg 22%
14:00 +35°C° 0 mm 4 mps 700 mmHg 19%
15:00 +36°C° 0 mm 5 mps 699 mmHg 17%
16:00 +36°C° 0 mm 5 mps 699 mmHg 16%
17:00 +36°C° 0 mm 5 mps 699 mmHg 16%
18:00 +35°C° 0 mm 5 mps 699 mmHg 16%
19:00 +32°C° 0 mm 5 mps 699 mmHg 21%
20:00 +28°C° 0 mm 4 mps 699 mmHg 27%
21:00 +25°C° 0 mm 4 mps 699 mmHg 33%
22:00 +22°C° 0 mm 4 mps 699 mmHg 47%
23:00 +20°C° 0 mm 3 mps 699 mmHg 62%

30 July, Friday

Time Temperature Precipitation Wind Pressure Humidity
00:00 +17°C° 0 mm 2 mps 699 mmHg 76%
01:00 +17°C° 0 mm 2 mps 699 mmHg 79%
02:00 +16°C° 0 mm 2 mps 699 mmHg 82%
03:00 +16°C° 0 mm 1 mps 699 mmHg 84%
04:00 +16°C° 0 mm 1 mps 699 mmHg 83%
05:00 +16°C° 0 mm 1 mps 700 mmHg 82%
06:00 +16°C° 0 mm 1 mps 700 mmHg 82%
07:00 +20°C° 0 mm 1 mps 700 mmHg 70%
08:00 +22°C° 0 mm 1 mps 700 mmHg 58%
09:00 +25°C° 0 mm 2 mps 701 mmHg 46%
10:00 +27°C° 0 mm 2 mps 701 mmHg 39%
11:00 +29°C° 0 mm 3 mps 701 mmHg 31%
12:00 +32°C° 0 mm 4 mps 701 mmHg 23%
13:00 +33°C° 0 mm 5 mps 700 mmHg 20%
14:00 +34°C° 0 mm 6 mps 700 mmHg 17%
15:00 +35°C° 0 mm 7 mps 700 mmHg 14%
16:00 +34°C° 0 mm 7 mps 700 mmHg 16%
17:00 +34°C° 0 mm 7 mps 700 mmHg 17%
18:00 +33°C° 0 mm 8 mps 699 mmHg 18%
19:00 +29°C° 0 mm 7 mps 700 mmHg 24%
20:00 +27°C° 0 mm 6 mps 700 mmHg 31%
21:00 +23°C° 0 mm 5 mps 700 mmHg 37%
22:00 +21°C° 0 mm 4 mps 700 mmHg 47%
23:00 +19°C° 0 mm 3 mps 700 mmHg 57%
Show more